Time,TemperatureF,DewpointF,PressureIn,WindDirection,WindDirectionDegrees,WindSpeedMPH,WindSpeedGustMPH,Humidity,HourlyPrecipIn,Conditions,Clouds,dailyrainin,SoftwareType,DateUTC
2013-12-08 00:06:00,27.1,13.0,30.39,NE,49,3.0,5.0,56,0.00,,,0.07,weatherlink.com 1.10,2013-12-08 05:06:00,
2013-12-08 00:21:00,26.8,12.0,30.40,WNW,284,0.0,5.0,55,0.00,,,0.07,weatherlink.com 1.10,2013-12-08 05:21:00,
2013-12-08 00:36:00,26.8,13.0,30.39,ENE,59,0.0,7.0,56,0.00,,,0.07,weatherlink.com 1.10,2013-12-08 05:36:00,
2013-12-08 00:51:00,26.8,13.0,30.40,North,5,3.0,7.0,56,0.00,,,0.00,weatherlink.com 1.10,2013-12-08 05:51:00,
2013-12-08 01:06:00,26.6,13.0,30.41,NW,306,0.0,5.0,56,0.00,,,0.00,weatherlink.com 1.10,2013-12-08 06:06:00,
2013-12-08 01:21:00,26.3,13.0,30.41,WNW,286,0.0,3.0,57,0.00,,,0.00,weatherlink.com 1.10,2013-12-08 06:21:00,
2013-12-08 01:36:00,26.3,13.0,30.41,NE,47,3.0,5.0,57,0.00,,,0.00,weatherlink.com 1.10,2013-12-08 06:36:00,
2013-12-08 01:51:00,26.4,13.0,30.41,NE,38,0.0,4.0,57,0.00,,,0.00,weatherlink.com 1.10,2013-12-08 06:51:00,
2013-12-08 02:06:00,26.3,12.0,30.42,North,355,1.0,4.0,56,0.00,,,0.00,weatherlink.com 1.10,2013-12-08 07:06:00,
2013-12-08 02:21:00,26.4,13.0,30.42,ENE,57,0.0,4.0,57,0.00,,,0.00,weatherlink.com 1.10,2013-12-08 07:21:00,
2013-12-08 02:36:00,26.2,13.0,30.42,ENE,61,0.0,2.0,57,0.00,,,0.00,weatherlink.com 1.10,2013-12-08 07:36:00,
2013-12-08 02:51:00,25.8,13.0,30.43,NNE,17,0.0,0.0,58,0.00,,,0.00,weatherlink.com 1.10,2013-12-08 07:51:00,
2013-12-08 03:06:00,25.7,13.0,30.43,NE,44,0.0,1.0,59,0.00,,,0.00,weatherlink.com 1.10,2013-12-08 08:06:00,
2013-12-08 03:21:00,25.9,13.0,30.43,NNE,19,0.0,4.0,58,0.00,,,0.00,weatherlink.com 1.10,2013-12-08 08:21:00,
2013-12-08 03:36:00,25.8,13.0,30.43,ENE,57,0.0,1.0,58,0.00,,,0.00,weatherlink.com 1.10,2013-12-08 08:36:00,
2013-12-08 03:51:00,25.5,13.0,30.43,ENE,61,0.0,0.0,60,0.00,,,0.00,weatherlink.com 1.10,2013-12-08 08:51:00,
2013-12-08 04:06:00,25.3,13.0,30.43,ENE,64,0.0,0.0,61,0.00,,,0.00,weatherlink.com 1.10,2013-12-08 09:06:00,
2013-12-08 04:21:00,25.2,13.0,30.44,NNW,344,0.0,0.0,61,0.00,,,0.00,weatherlink.com 1.10,2013-12-08 09:21:00,
2013-12-08 04:36:00,25.2,13.0,30.44,NE,46,0.0,3.0,60,0.00,,,0.00,weatherlink.com 1.10,2013-12-08 09:36:00,
2013-12-08 04:51:00,25.6,12.0,30.45,ENE,70,0.0,5.0,57,0.00,,,0.00,weatherlink.com 1.10,2013-12-08 09:51:00,
2013-12-08 05:06:00,25.5,12.0,30.46,NNE,22,3.0,5.0,57,0.00,,,0.00,weatherlink.com 1.10,2013-12-08 10:06:00,
2013-12-08 05:21:00,25.5,12.0,30.47,NNE,32,0.0,4.0,58,0.00,,,0.00,weatherlink.com 1.10,2013-12-08 10:21:00,
2013-12-08 05:36:00,25.7,12.0,30.47,NE,53,0.0,8.0,56,0.00,,,0.00,weatherlink.com 1.10,2013-12-08 10:36:00,
2013-12-08 05:51:00,25.7,12.0,30.48,NNE,17,1.0,5.0,57,0.00,,,0.00,weatherlink.com 1.10,2013-12-08 10:51:00,
2013-12-08 06:07:00,25.6,12.0,30.49,ESE,112,0.0,9.0,56,0.00,,,0.00,weatherlink.com 1.10,2013-12-08 11:07:00,
2013-12-08 06:22:00,25.3,12.0,30.49,NNE,20,0.0,6.0,57,0.00,,,0.00,weatherlink.com 1.10,2013-12-08 11:22:00,
2013-12-08 06:37:00,24.9,12.0,30.50,NNE,22,3.0,4.0,59,0.00,,,0.00,weatherlink.com 1.10,2013-12-08 11:37:00,
2013-12-08 06:52:00,24.7,12.0,30.50,NE,43,0.0,5.0,58,0.00,,,0.00,weatherlink.com 1.10,2013-12-08 11:52:00,
2013-12-08 07:07:00,24.7,12.0,30.50,NE,43,0.0,3.0,59,0.00,,,0.00,weatherlink.com 1.10,2013-12-08 12:07:00,
2013-12-08 07:22:00,24.6,12.0,30.50,East,86,0.0,4.0,59,0.00,,,0.00,weatherlink.com 1.10,2013-12-08 12:22:00,
2013-12-08 07:37:00,24.8,12.0,30.51,WNW,284,2.0,2.0,59,0.00,,,0.00,weatherlink.com 1.10,2013-12-08 12:37:00,
2013-12-08 07:52:00,25.1,12.0,30.52,East,86,0.0,5.0,59,0.00,,,0.00,weatherlink.com 1.10,2013-12-08 12:52:00,
2013-12-08 08:07:00,25.1,12.0,30.52,NE,49,0.0,3.0,59,0.00,,,0.00,weatherlink.com 1.10,2013-12-08 13:07:00,
2013-12-08 08:22:00,25.4,12.0,30.53,ENE,61,0.0,6.0,57,0.00,,,0.00,weatherlink.com 1.10,2013-12-08 13:22:00,
2013-12-08 08:37:00,25.5,12.0,30.52,NNE,13,0.0,3.0,56,0.00,,,0.00,weatherlink.com 1.10,2013-12-08 13:37:00,
2013-12-08 08:52:00,25.9,12.0,30.53,NNW,340,0.0,4.0,55,0.00,,,0.00,weatherlink.com 1.10,2013-12-08 13:52:00,
2013-12-08 09:07:00,26.4,11.0,30.53,NNW,345,0.0,5.0,53,0.00,,,0.00,weatherlink.com 1.10,2013-12-08 14:07:00,
2013-12-08 09:22:00,26.6,11.0,30.52,NE,50,5.0,7.0,53,0.00,,,0.00,weatherlink.com 1.10,2013-12-08 14:22:00,
2013-12-08 09:37:00,27.5,12.0,30.54,NNW,331,0.0,4.0,52,0.00,,,0.00,weatherlink.com 1.10,2013-12-08 14:37:00,
2013-12-08 09:52:00,27.9,13.0,30.54,ENE,67,3.0,4.0,53,0.00,,,0.00,weatherlink.com 1.10,2013-12-08 14:52:00,
2013-12-08 10:07:00,28.4,14.0,30.54,NE,34,0.0,4.0,54,0.00,,,0.00,weatherlink.com 1.10,2013-12-08 15:07:00,
2013-12-08 10:22:00,29.0,11.0,30.54,NNE,13,0.0,6.0,48,0.00,,,0.00,weatherlink.com 1.10,2013-12-08 15:22:00,
2013-12-08 10:37:00,29.0,11.0,30.54,NE,49,1.0,6.0,48,0.00,,,0.00,weatherlink.com 1.10,2013-12-08 15:37:00,
2013-12-08 10:52:00,29.2,11.0,30.53,WSW,256,0.0,9.0,46,0.00,,,0.00,weatherlink.com 1.10,2013-12-08 15:52:00,
2013-12-08 11:07:00,29.4,11.0,30.52,NE,35,2.0,13.0,46,0.00,,,0.00,weatherlink.com 1.10,2013-12-08 16:07:00,
2013-12-08 11:22:00,30.2,12.0,30.52,NE,47,0.0,6.0,46,0.00,,,0.00,weatherlink.com 1.10,2013-12-08 16:22:00,
2013-12-08 11:37:00,29.8,11.0,30.52,NNE,28,7.0,8.0,45,0.00,,,0.00,weatherlink.com 1.10,2013-12-08 16:37:00,
2013-12-08 11:52:00,29.8,12.0,30.52,ENE,66,1.0,7.0,47,0.00,,,0.00,weatherlink.com 1.10,2013-12-08 16:52:00,
2013-12-08 12:07:00,30.2,12.0,30.51,NNW,340,0.0,6.0,46,0.00,,,0.00,weatherlink.com 1.10,2013-12-08 17:07:00,
2013-12-08 12:22:00,30.2,11.0,30.51,West,261,0.0,6.0,45,0.00,,,0.00,weatherlink.com 1.10,2013-12-08 17:22:00,
2013-12-08 12:37:00,29.8,10.0,30.50,SE,132,0.0,7.0,44,0.00,,,0.00,weatherlink.com 1.10,2013-12-08 17:37:00,
2013-12-08 12:52:00,29.8,11.0,30.50,WNW,302,0.0,7.0,45,0.00,,,0.00,weatherlink.com 1.10,2013-12-08 17:52:00,
2013-12-08 13:07:00,29.8,10.0,30.50,ENE,59,2.0,5.0,44,0.00,,,0.00,weatherlink.com 1.10,2013-12-08 18:07:00,
2013-12-08 13:22:00,29.9,11.0,30.50,NNE,12,0.0,7.0,45,0.00,,,0.00,weatherlink.com 1.10,2013-12-08 18:22:00,
2013-12-08 13:37:00,30.0,10.0,30.51,WSW,252,0.0,2.0,44,0.00,,,0.00,weatherlink.com 1.10,2013-12-08 18:37:00,
2013-12-08 13:52:00,30.0,10.0,30.51,NNE,16,0.0,3.0,44,0.00,,,0.00,weatherlink.com 1.10,2013-12-08 18:52:00,
2013-12-08 14:07:00,29.9,10.0,30.51,East,87,0.0,5.0,43,0.00,,,0.00,weatherlink.com 1.10,2013-12-08 19:07:00,
2013-12-08 14:22:00,29.9,10.0,30.51,NNE,12,4.0,5.0,43,0.00,,,0.00,weatherlink.com 1.10,2013-12-08 19:22:00,
2013-12-08 14:37:00,29.8,10.0,30.50,NW,310,0.0,3.0,43,0.00,,,0.00,weatherlink.com 1.10,2013-12-08 19:37:00,
2013-12-08 14:52:00,29.7,10.0,30.50,WNW,289,0.0,0.0,44,0.00,,,0.00,weatherlink.com 1.10,2013-12-08 19:52:00,
2013-12-08 15:07:00,30.2,10.0,30.51,NNE,30,0.0,0.0,43,0.00,,,0.00,weatherlink.com 1.10,2013-12-08 20:07:00,
2013-12-08 15:22:00,29.7,9.0,30.50,NW,311,0.0,3.0,42,0.00,,,0.00,weatherlink.com 1.10,2013-12-08 20:22:00,
2013-12-08 15:37:00,28.9,9.0,30.50,NE,44,0.0,0.0,44,0.00,,,0.00,weatherlink.com 1.10,2013-12-08 20:37:00,
2013-12-08 15:52:00,28.3,9.0,30.52,NE,41,0.0,0.0,45,0.00,,,0.00,weatherlink.com 1.10,2013-12-08 20:52:00,
2013-12-08 16:07:00,28.1,9.0,30.53,North,5,0.0,1.0,45,0.00,,,0.00,weatherlink.com 1.10,2013-12-08 21:07:00,
2013-12-08 16:22:00,28.0,9.0,30.53,East,79,0.0,3.0,45,0.00,,,0.00,weatherlink.com 1.10,2013-12-08 21:22:00,
2013-12-08 16:37:00,28.1,9.0,30.54,NNE,15,0.0,3.0,45,0.00,,,0.00,weatherlink.com 1.10,2013-12-08 21:37:00,
2013-12-08 16:52:00,28.1,10.0,30.53,NW,314,1.0,4.0,46,0.00,,,0.00,weatherlink.com 1.10,2013-12-08 21:52:00,
2013-12-08 17:07:00,28.2,10.0,30.53,ENE,78,0.0,5.0,46,0.00,,,0.00,weatherlink.com 1.10,2013-12-08 22:07:00,
2013-12-08 17:22:00,28.1,10.0,30.53,ENE,60,0.0,5.0,47,0.00,,,0.00,weatherlink.com 1.10,2013-12-08 22:22:00,
2013-12-08 17:37:00,27.7,10.0,30.54,ENE,78,0.0,3.0,48,0.00,,,0.00,weatherlink.com 1.10,2013-12-08 22:37:00,
2013-12-08 17:52:00,28.0,11.0,30.54,NE,54,0.0,5.0,49,0.00,,,0.00,weatherlink.com 1.10,2013-12-08 22:52:00,
2013-12-08 18:08:00,28.3,10.0,30.55,ENE,70,0.0,3.0,47,0.00,,,0.00,weatherlink.com 1.10,2013-12-08 23:08:00,
2013-12-08 18:23:00,28.4,10.0,30.55,NE,40,0.0,0.0,47,0.00,,,0.00,weatherlink.com 1.10,2013-12-08 23:23:00,
2013-12-08 18:38:00,28.3,10.0,30.55,NNE,32,0.0,0.0,47,0.00,,,0.00,weatherlink.com 1.10,2013-12-08 23:38:00,
2013-12-08 18:53:00,28.3,11.0,30.54,ENE,65,0.0,0.0,48,0.00,,,0.00,weatherlink.com 1.10,2013-12-08 23:53:00,
2013-12-08 19:08:00,28.2,11.0,30.54,NE,44,0.0,0.0,49,0.00,,,0.00,weatherlink.com 1.10,2013-12-09 00:08:00,
2013-12-08 19:23:00,28.2,12.0,30.54,ENE,66,0.0,0.0,50,0.00,,,0.00,weatherlink.com 1.10,2013-12-09 00:23:00,
2013-12-08 19:38:00,28.3,11.0,30.54,ENE,73,0.0,1.0,49,0.00,,,0.00,weatherlink.com 1.10,2013-12-09 00:38:00,
2013-12-08 19:53:00,28.5,13.0,30.54,ENE,58,0.0,2.0,52,0.00,,,0.00,weatherlink.com 1.10,2013-12-09 00:53:00,
2013-12-08 20:08:00,28.4,13.0,30.55,ENE,76,0.0,0.0,53,0.00,,,0.00,weatherlink.com 1.10,2013-12-09 01:08:00,
2013-12-08 20:23:00,28.2,12.0,30.55,NNE,27,0.0,0.0,50,0.00,,,0.00,weatherlink.com 1.10,2013-12-09 01:23:00,
2013-12-08 20:38:00,28.1,12.0,30.55,ENE,67,0.0,3.0,52,0.00,,,0.00,weatherlink.com 1.10,2013-12-09 01:38:00,
2013-12-08 20:53:00,28.5,12.0,30.55,East,91,3.0,5.0,50,0.00,,,0.00,weatherlink.com 1.10,2013-12-09 01:53:00,
2013-12-08 21:08:00,28.5,12.0,30.55,ESE,115,0.0,5.0,51,0.00,,,0.00,weatherlink.com 1.10,2013-12-09 02:08:00,
2013-12-08 21:23:00,28.6,14.0,30.54,ENE,78,0.0,4.0,55,0.00,,,0.00,weatherlink.com 1.10,2013-12-09 02:23:00,
2013-12-08 21:38:00,28.3,13.0,30.55,ENE,73,0.0,5.0,53,0.00,,,0.00,weatherlink.com 1.10,2013-12-09 02:38:00,
2013-12-08 21:53:00,28.1,13.0,30.56,NE,53,0.0,8.0,54,0.00,,,0.00,weatherlink.com 1.10,2013-12-09 02:53:00,
2013-12-08 22:08:00,28.1,13.0,30.56,ENE,57,0.0,5.0,54,0.00,,,0.00,weatherlink.com 1.10,2013-12-09 03:08:00,
2013-12-08 22:23:00,28.2,13.0,30.55,East,80,6.0,8.0,54,0.00,,,0.00,weatherlink.com 1.10,2013-12-09 03:23:00,
2013-12-08 22:38:00,28.3,14.0,30.54,East,83,5.0,8.0,55,0.00,,,0.00,weatherlink.com 1.10,2013-12-09 03:38:00,
2013-12-08 22:53:00,28.2,12.0,30.53,East,94,2.0,7.0,52,0.00,,,0.00,weatherlink.com 1.10,2013-12-09 03:53:00,
2013-12-08 23:08:00,28.1,14.0,30.54,East,96,6.0,9.0,55,0.00,,,0.00,weatherlink.com 1.10,2013-12-09 04:08:00,
2013-12-08 23:23:00,28.1,14.0,30.54,East,97,7.0,9.0,55,0.00,,,0.00,weatherlink.com 1.10,2013-12-09 04:23:00,
2013-12-08 23:38:00,28.2,15.0,30.53,ENE,74,7.0,8.0,58,0.00,,,0.00,weatherlink.com 1.10,2013-12-09 04:38:00,
2013-12-08 23:53:00,27.9,14.0,30.52,NE,55,3.0,9.0,55,0.00,,,0.00,weatherlink.com 1.10,2013-12-09 04:53:00,